Temp
7 7 6 6 6 5 5 4 2 2 4 6 5 4 3 3 3 3 3 3 5 4 4 5 5 5 6 6 7 7 7 7 6 6 6 7 7 8
6 6 6 6 5 5 5 4 3 2 1 4 6 3 3 3 3 4 4 3 4 4 4 4 5 5 5 6 6 6 7 7 6 6 6 6 6 7
5 5 5 5 5 5 4 4 4 2 1 1 3 5 3 3 3 2 3 3 2 3 4 4 4 4 5 5 5 6 6 6 7 6 6 6 6 7
4 4 4 4 3 4 3 3 2 2 1 1 1 3 3 3 2 2 3 2 4 4 3 3 3 4 4 4 5 5 5 6 6 6 6 6 6 6
2 3 3 3 3 3 2 1 2 1 1 -0 0 0 3 2 1 3 3 2 1 3 3 3 3 3 3 4 4 5 5 5 5 5 6 6 6 6
1 2 2 2 2 1 1 0 -0 -1 -1 -0 -0 -1 0 2 1 0 1 1 1 1 1 2 3 3 3 3 3 4 4 4 5 5 5 5 5 5
0 0 1 1 1 1 -0 -0 -1 -1 -1 -1 -1 -1 -1 -0 -1 -1 -0 -1 -0 0 -0 0 1 2 3 3 3 3 3 3 4 4 4 4 5 5
-1 -0 0 0 1 1 0 -0 -1 -1 -1 -2 -2 -2 -2 -2 -1 -1 -1 -1 -1 -0 -0 -0 0 1 2 2 3 3 3 3 3 3 4 4 4 4
-1 -1 -1 -0 -0 -1 -1 -1 -1 -1 -1 -1 -1 -1 -1 -1 -1 -1 -1 -2 -1 -1 -1 -1 -1 -0 -0 1 2 2 2 3 3 2 3 3 3 3
-2 -2 -2 -1 -1 -1 -2 -2 -2 -2 -2 -2 -2 -2 -2 -2 -2 -2 -2 -2 -2 -1 -1 -1 -1 -1 -1 0 1 1 2 2 2 2 2 2 2 3
-3 -3 -3 -2 -1 -1 -2 -2 -3 -2 -2 -3 -3 -3 -4 -3 -2 -2 -2 -2 -2 -1 -1 -2 -2 -2 -1 -0 0 1 1 1 1 1 1 2 2 2
-3 -3 -3 -3 -2 -2 -3 -3 -3 -3 -3 -3 -3 -3 -4 -3 -3 -3 -3 -3 -3 -2 -2 -2 -1 -1 -1 -1 -0 0 0 0 0 1 1 0 1 1
-4 -4 -4 -4 -4 -3 -4 -4 -4 -4 -3 -3 -3 -3 -3 -3 -3 -4 -3 -3 -3 -3 -2 -2 -2 -2 -1 -1 -1 -1 -1 -1 -1 -0 -1 -1 -0 1
-5 -5 -5 -5 -4 -5 -5 -4 -4 -4 -4 -4 -4 -4 -4 -4 -3 -4 -4 -4 -3 -3 -3 -3 -3 -2 -2 -2 -2 -1 -1 -1 -1 -2 -2 -2 -3 -2
-5 -5 -5 -5 -5 -5 -5 -5 -5 -5 -4 -4 -4 -4 -5 -5 -5 -4 -4 -4 -4 -4 -3 -3 -3 -3 -3 -2 -2 -2 -2 -2 -2 -2 -2 -2 -2 -3
-6 -6 -5 -5 -5 -6 -5 -6 -6 -6 -5 -5 -5 -6 -6 -6 -6 -5 -4 -4 -4 -4 -4 -4 -4 -3 -3 -3 -3 -3 -3 -3 -2 -2 -3 -3 -2 -2
-6 -5 -5 -5 -6 -6 -6 -6 -6 -6 -6 -6 -6 -7 -7 -6 -6 -6 -5 -5 -5 -5 -4 -4 -4 -4 -4 -4 -3 -3 -3 -3 -3 -3 -3 -4 -3 -3
-6 -6 -5 -5 -6 -6 -6 -7 -7 -7 -7 -6 -7 -7 -7 -7 -7 -7 -6 -6 -5 -5 -5 -4 -5 -5 -4 -4 -4 -4 -4 -4 -4 -4 -4 -4 -4 -3
-6 -6 -6 -6 -6 -7 -7 -7 -7 -8 -8 -7 -7 -7 -7 -7 -7 -7 -7 -7 -6 -6 -5 -5 -5 -5 -5 -5 -4 -4 -4 -4 -4 -4 -4 -4 -4 -4
-7 -6 -6 -7 -7 -7 -7 -7 -8 -8 -8 -8 -8 -8 -7 -7 -7 -7 -7 -7 -7 -6 -6 -5 -5 -5 -5 -5 -5 -4 -4 -5 -4 -4 -4 -4 -4 -4
-7 -7 -7 -8 -7 -7 -7 -7 -8 -8 -8 -8 -8 -8 -8 -7 -7 -7 -7 -7 -7 -7 -6 -5 -5 -5 -5 -5 -5 -5 -5 -5 -5 -5 -5 -5 -5 -5
-8 -8 -8 -8 -8 -8 -7 -8 -8 -8 -9 -9 -9 -8 -9 -8 -7 -7 -7 -7 -7 -7 -6 -6 -6 -6 -6 -6 -5 -5 -5 -5 -6 -6 -6 -6 -6 -5
-8 -8 -9 -8 -8 -8 -8 -8 -8 -8 -8 -8 -9 -9 -9 -8 -8 -8 -7 -7 -7 -7 -7 -6 -6 -6 -6 -6 -6 -5 -5 -6 -6 -6 -6 -6 -6 -6
Height
1514 1512 1509 1507 1504 1501 1498 1495 1493 1486 1483 1481 1479 1476 1474 1472 1471 1469 1466 1464 1462 1461 1459 1459 1457 1456 1454 1452 1451 1450 1448 1447 1446 1444 1443 1443 1443 1441
1508 1506 1504 1501 1499 1495 1492 1490 1487 1484 1478 1477 1473 1472 1469 1465 1462 1460 1459 1457 1455 1454 1453 1452 1451 1450 1449 1448 1447 1446 1445 1444 1443 1442 1441 1441 1441 1441
1504 1501 1499 1496 1493 1490 1485 1482 1479 1477 1471 1468 1467 1465 1461 1459 1456 1453 1451 1449 1448 1447 1446 1445 1445 1444 1443 1442 1442 1441 1440 1440 1439 1439 1438 1438 1438 1439
1499 1496 1494 1491 1487 1485 1481 1478 1475 1472 1468 1461 1461 1459 1455 1453 1450 1447 1444 1442 1439 1438 1438 1438 1437 1437 1437 1436 1436 1436 1436 1435 1435 1435 1435 1435 1435 1436
1492 1489 1486 1484 1480 1477 1474 1470 1467 1464 1461 1456 1452 1451 1449 1447 1443 1439 1438 1436 1434 1431 1429 1428 1429 1430 1430 1430 1430 1430 1430 1430 1430 1430 1431 1431 1432 1433
1486 1483 1480 1477 1474 1471 1467 1464 1461 1458 1455 1451 1447 1443 1441 1440 1436 1433 1431 1431 1429 1426 1423 1420 1420 1421 1422 1423 1424 1424 1424 1424 1425 1425 1426 1428 1428 1429
1479 1476 1473 1470 1467 1464 1461 1457 1455 1453 1448 1444 1441 1438 1436 1434 1431 1428 1424 1424 1421 1420 1417 1415 1413 1414 1413 1415 1416 1417 1419 1419 1419 1420 1421 1422 1424 1426
1472 1469 1466 1462 1459 1455 1453 1450 1448 1445 1442 1439 1435 1432 1429 1428 1427 1424 1421 1419 1415 1415 1412 1410 1408 1408 1406 1407 1407 1410 1411 1413 1415 1415 1416 1417 1418 1420
1466 1462 1459 1456 1452 1449 1445 1442 1440 1438 1435 1432 1428 1426 1422 1421 1420 1416 1414 1412 1412 1410 1408 1404 1404 1402 1402 1401 1401 1402 1404 1406 1409 1411 1412 1413 1414 1416
1459 1456 1452 1449 1446 1443 1439 1437 1434 1432 1429 1426 1422 1418 1416 1413 1412 1410 1408 1405 1403 1403 1403 1397 1399 1396 1397 1396 1396 1396 1398 1400 1402 1404 1407 1409 1410 1411
1452 1448 1445 1442 1439 1437 1432 1429 1427 1425 1423 1419 1416 1413 1410 1407 1405 1403 1401 1400 1396 1394 1394 1393 1393 1391 1390 1391 1390 1391 1391 1394 1394 1398 1400 1403 1405 1407
1444 1441 1438 1435 1431 1429 1426 1422 1420 1418 1416 1413 1410 1407 1405 1403 1401 1397 1396 1394 1392 1389 1388 1387 1387 1388 1387 1384 1385 1384 1387 1388 1390 1391 1395 1397 1399 1402
1436 1432 1431 1428 1424 1421 1419 1416 1413 1410 1407 1405 1402 1400 1399 1396 1394 1392 1390 1388 1386 1383 1383 1382 1381 1382 1383 1383 1383 1383 1383 1384 1385 1386 1389 1391 1394 1397
1428 1426 1423 1420 1417 1414 1411 1408 1405 1403 1400 1397 1395 1394 1393 1390 1387 1386 1383 1381 1380 1378 1377 1376 1375 1377 1377 1377 1378 1379 1380 1381 1382 1383 1384 1387 1389 1392
1422 1418 1415 1412 1410 1407 1405 1402 1399 1396 1394 1392 1389 1388 1386 1384 1381 1378 1377 1376 1375 1373 1371 1370 1370 1370 1371 1371 1373 1375 1376 1377 1378 1379 1382 1383 1385 1388
1415 1411 1408 1406 1404 1401 1398 1397 1394 1391 1389 1386 1384 1382 1380 1378 1376 1374 1372 1371 1370 1370 1368 1366 1365 1365 1365 1367 1368 1370 1371 1372 1373 1375 1376 1379 1381 1383
1408 1405 1402 1401 1398 1395 1393 1390 1388 1385 1382 1381 1379 1376 1374 1373 1370 1369 1368 1366 1366 1364 1363 1362 1361 1360 1360 1362 1363 1364 1365 1366 1368 1370 1371 1373 1376 1378
1401 1398 1395 1393 1392 1389 1386 1384 1382 1379 1377 1375 1374 1372 1370 1368 1366 1364 1363 1362 1361 1360 1359 1358 1358 1357 1357 1357 1358 1358 1360 1361 1363 1364 1367 1369 1371 1373
1393 1390 1388 1386 1384 1382 1380 1377 1375 1373 1371 1369 1367 1366 1365 1364 1362 1360 1358 1357 1356 1356 1355 1355 1354 1354 1353 1353 1353 1354 1354 1355 1357 1359 1361 1363 1366 1368
1385 1382 1380 1378 1376 1374 1372 1370 1369 1367 1365 1363 1362 1361 1360 1359 1357 1356 1354 1353 1352 1352 1351 1350 1350 1350 1350 1350 1350 1350 1350 1351 1353 1355 1356 1358 1360 1361
1377 1374 1372 1370 1368 1367 1365 1363 1362 1360 1358 1356 1355 1354 1354 1353 1352 1351 1350 1349 1349 1348 1347 1346 1346 1346 1346 1346 1346 1346 1347 1348 1349 1350 1352 1353 1355 1357
1368 1366 1364 1363 1361 1359 1358 1356 1355 1353 1351 1349 1348 1347 1347 1346 1346 1345 1345 1344 1344 1343 1343 1342 1342 1342 1342 1343 1343 1343 1343 1344 1345 1346 1348 1350 1352 1353
1359 1358 1356 1354 1352 1352 1351 1349 1348 1347 1346 1344 1343 1342 1341 1340 1340 1339 1339 1339 1339 1339 1339 1338 1338 1338 1338 1339 1340 1340 1340 1341 1342 1343 1345 1347 1349 1350
Wind_Speed
21 21 22 22 22 22 22 21 18 16 21 20 17 13 15 16 18 20 22 24 26 26 26 24 22 21 19 17 16 16 15 14 13 11 9 6 3 3
24 24 24 24 24 25 24 23 21 22 24 23 28 23 24 23 24 25 27 28 29 26 26 25 23 22 21 19 17 15 15 15 13 12 10 8 7 5
27 28 27 28 27 27 26 26 26 23 28 28 28 30 28 27 26 23 22 23 24 26 25 27 26 25 23 21 20 18 15 15 14 13 12 10 9 11
28 29 30 29 30 29 28 27 27 26 25 29 24 30 30 28 27 27 25 23 26 28 27 26 27 26 25 23 22 19 17 15 15 15 14 12 11 11
30 31 32 31 32 30 29 27 28 28 28 27 27 24 28 26 28 30 26 23 22 27 29 28 28 27 27 25 23 21 19 17 16 15 15 14 13 11
31 32 32 32 32 31 30 28 27 25 23 24 25 28 28 29 30 29 26 19 20 19 23 27 27 28 28 26 25 23 21 19 17 16 16 16 15 14
30 30 31 31 32 31 31 31 26 24 26 29 30 29 27 23 21 25 24 26 27 25 25 24 21 26 28 27 27 26 24 21 20 18 17 16 16 15
28 30 31 31 31 32 30 28 27 27 28 27 29 28 28 26 26 26 28 27 27 18 19 18 18 17 22 25 26 27 25 23 21 19 18 18 17 16
30 31 31 29 29 29 29 27 27 27 27 27 30 30 29 27 26 27 26 26 25 26 27 29 22 23 19 21 20 20 20 20 20 20 20 19 18 18
32 30 29 30 28 27 27 27 26 25 24 24 26 27 28 28 25 24 24 24 25 23 25 29 24 23 17 19 22 24 24 23 21 21 21 20 19 19
27 26 28 32 31 26 25 27 26 27 25 26 23 25 23 23 23 20 24 24 27 26 22 21 23 21 18 17 21 19 21 23 23 22 21 21 20 20
27 26 27 28 30 29 26 24 23 25 22 23 23 22 21 22 23 20 22 24 24 27 24 21 19 16 8 10 16 20 20 21 22 21 22 22 21 19
26 29 25 25 28 28 26 23 26 28 29 28 29 25 24 22 22 24 24 22 25 26 26 17 18 17 17 15 13 10 8 11 20 21 21 21 21 19
27 27 25 26 28 27 26 24 25 26 26 26 25 23 23 23 24 24 24 26 22 24 20 24 23 21 21 21 18 16 15 14 12 16 17 20 20 19
25 26 28 28 27 25 21 23 24 20 21 22 22 25 25 23 21 20 17 18 20 18 19 21 22 20 21 20 19 17 15 15 16 15 16 19 19 21
24 24 25 26 25 23 22 20 19 20 20 23 21 22 24 23 20 17 16 17 20 21 19 17 18 19 19 19 19 19 18 14 14 21 21 21 21 22
27 28 28 26 25 24 22 20 20 19 19 20 21 21 22 21 21 17 17 15 19 20 18 15 13 13 17 20 20 20 19 20 19 17 17 22 23 22
26 28 29 28 24 23 22 22 20 19 19 20 22 21 21 21 22 21 19 18 19 19 17 15 15 14 15 17 18 19 19 20 21 20 18 19 21 23
25 28 28 28 28 25 24 21 20 19 19 19 19 22 21 20 20 21 21 18 18 18 18 15 14 15 14 14 17 14 13 15 17 18 18 20 21 22
24 27 28 27 27 27 26 24 24 24 24 23 21 20 19 19 19 20 18 16 16 17 18 16 14 15 16 15 16 12 9 12 14 15 18 20 20 20
26 27 25 24 24 22 22 24 24 25 24 22 21 19 20 21 23 22 20 18 17 18 18 17 13 11 11 12 16 17 13 12 13 14 15 15 14 14
24 24 26 26 25 23 21 21 22 23 22 20 18 18 19 18 19 21 22 20 18 18 19 15 15 13 13 12 12 13 13 10 12 13 13 13 10 8
27 27 27 26 23 22 22 22 23 22 22 20 20 20 20 19 18 18 19 19 18 19 18 16 13 14 13 14 13 13 12 10 10 11 13 13 12 12
Wind_Direction
314 313 312 309 305 301 296 292 283 284 292 296 291 289 292 289 289 287 282 279 284 285 287 286 287 288 286 285 287 289 287 284 283 286 290 278 297 339
309 308 305 303 302 300 297 294 284 275 273 286 294 287 286 284 286 284 284 280 281 278 279 280 280 282 283 281 280 280 280 281 276 274 275 270 229 244
306 305 303 301 299 296 293 290 286 279 274 281 290 294 289 289 288 285 280 279 279 282 276 275 276 276 276 276 277 276 269 271 270 266 261 257 249 231
303 302 302 300 298 297 295 292 289 286 281 283 284 289 290 291 288 283 284 274 276 277 278 271 270 270 271 271 271 271 267 264 264 261 257 252 244 244
301 299 298 297 296 295 292 288 288 288 286 285 287 284 288 289 288 289 290 282 277 279 273 269 265 265 265 265 266 264 261 260 259 255 252 246 243 240
304 303 301 299 297 296 293 290 289 288 287 285 284 284 290 290 286 288 291 281 280 281 283 271 262 260 260 260 263 261 257 255 254 248 244 244 238 234
304 304 303 301 298 294 292 290 287 287 286 292 293 293 293 295 290 294 290 292 286 281 285 286 278 262 258 257 258 260 257 253 248 242 237 233 236 235
304 306 306 305 304 300 293 288 286 287 287 287 290 290 294 294 294 289 295 296 295 289 286 288 284 275 262 258 254 256 254 250 242 241 239 236 229 228
303 306 304 304 306 303 297 291 286 285 286 289 288 286 288 285 285 285 289 287 286 286 286 284 281 280 274 262 250 241 241 241 242 245 243 238 234 232
299 300 301 301 302 304 300 291 288 288 287 289 286 287 285 283 281 283 285 285 286 283 279 281 282 275 275 269 255 248 246 243 243 241 242 240 236 234
296 294 294 293 294 295 297 291 286 289 292 294 291 292 290 289 282 280 280 284 283 283 283 283 282 283 275 267 256 248 243 240 236 237 236 239 236 235
298 296 296 294 294 292 289 287 285 287 292 291 291 297 297 288 289 287 282 281 282 281 281 271 280 275 275 264 253 250 248 241 237 234 233 235 235 232
294 296 295 292 294 296 293 286 282 284 283 284 286 287 289 303 293 279 286 287 279 278 271 260 252 247 242 263 273 270 281 258 235 230 227 230 239 230
291 291 291 289 296 297 295 291 289 287 284 284 282 282 282 287 294 286 281 279 287 274 278 269 266 249 247 258 252 260 265 264 249 224 219 221 227 239
294 292 293 295 298 299 300 295 296 291 283 278 281 286 288 291 290 295 291 279 288 287 282 270 273 263 256 256 258 258 253 248 237 233 228 227 228 230
302 300 298 298 296 296 299 297 294 292 282 279 280 283 287 289 292 290 286 286 284 286 291 288 274 261 259 261 261 262 259 247 247 238 230 230 228 230
294 292 290 289 290 290 290 290 293 293 287 278 286 289 288 287 289 290 286 283 280 291 297 293 282 272 261 259 259 262 257 250 249 244 238 230 227 230
288 286 287 288 284 285 289 290 289 287 289 277 281 284 286 290 292 293 285 282 284 281 288 294 282 280 273 265 259 263 257 251 245 246 244 238 238 236
279 279 280 283 284 282 282 286 287 289 288 290 276 279 284 286 290 293 292 282 281 292 283 287 283 271 272 264 271 270 253 252 244 242 238 238 242 244
275 276 279 280 281 281 284 284 289 291 291 291 279 276 274 281 288 290 293 287 284 278 290 281 279 273 263 262 263 276 262 247 242 235 239 246 250 249
274 276 279 283 285 288 284 285 289 290 290 285 280 275 274 276 274 279 285 288 286 279 284 282 285 285 271 271 262 263 271 253 242 243 246 239 236 233
277 279 283 286 284 282 285 286 287 294 302 295 289 287 288 281 274 272 272 280 285 284 277 285 273 277 266 266 262 259 268 259 241 238 234 226 224 220
279 279 278 280 279 274 277 280 286 290 296 289 283 286 284 280 272 269 267 271 277 284 273 280 279 275 270 260 260 262 258 255 244 232 231 231 230 223